Simultaneous Nadir Overpasses (SNOs) Predictions

Prediction of SNOs between METOP-B and TERRA Satellite Orbit:

Table of predicted SNOs for the next 14.0 days since TLE Epoch: 8/11/2013
Index Date (METOP-B) Time (METOP-B) Lat,Lon (METOP-B) SZA (METOP-B ) Date (TERRA) Time (TERRA) Lat,Lon (TERRA) SZA (TERRA ) Distance(km) Time Diff (sec)
1 08/12/2013 04:11:34 81.29, 163.64 69.02 08/12/2013 04:12:38 81.29, 163.75 69.05 1.87 64
2 08/12/2013 05:02:14 -81.30, -28.45 110.91 08/12/2013 05:02:04 -81.31, -28.31 110.89 2.40 10
3 08/14/2013 23:45:56 81.30,-129.52 69.94 08/14/2013 23:46:53 81.31,-129.49 69.97 0.93 57
4 08/15/2013 00:36:37 -81.30, 38.03 110.03 08/15/2013 00:36:20 -81.30, 38.10 110.03 1.17 17
5 08/17/2013 19:20:19 81.30, -63.08 70.85 08/17/2013 19:21:09 81.30, -63.22 70.85 2.32 50
6 08/
